This is the latest recevied weather packets stored in our database for station/object WD7CGF. If no packets are shown the sender has not sent any weather packets the latest 10 day(s).
| Time | Temp. | Humidity | Pressure | Rain* | Wind** | Luminosity | Snow |
|---|---|---|---|---|---|---|---|
| 1777557499 | 3.33° C | 92% | 1022.6 hPa | 0 mm | - | - | - |
| 1777556907 | 2.78° C | 92% | 1022.6 hPa | 0 mm | - | - | - |
| 1777556312 | 2.22° C | 92% | 1022.3 hPa | 0 mm | - | - | - |
| 1777555701 | 1.67° C | 91% | 1022.3 hPa | 0 mm | - | - | - |
| 1777555113 | 1.67° C | 91% | 1022.3 hPa | 0 mm | - | - | - |
| 1777554504 | 1.67° C | 91% | 1022.3 hPa | 0 mm | - | - | - |
| 1777553913 | 1.67° C | 91% | 1022.2 hPa | 0 mm | - | - | - |
| 1777553300 | 2.22° C | 90% | 1022.2 hPa | 0 mm | - | - | - |
| 1777552700 | 2.22° C | 90% | 1022.2 hPa | 0 mm | - | - | - |
| 1777552109 | 2.22° C | 90% | 1022.1 hPa | 0 mm | - | - | - |
| 1777551495 | 2.22° C | 90% | 1022.1 hPa | 0 mm | - | - | - |
| 1777550906 | 2.22° C | 90% | 1022.2 hPa | 0 mm | - | - | - |
| 1777550294 | 2.22° C | 90% | 1022.1 hPa | 0 mm | - | - | - |
| 1777549702 | 2.78° C | 89% | 1022.1 hPa | 0 mm | - | - | - |
| 1777549110 | 2.78° C | 89% | 1022.1 hPa | 0 mm | - | - | - |
| 1777548498 | 2.78° C | 89% | 1021.9 hPa | 0 mm | - | - | - |
| 1777547906 | 2.78° C | 89% | 1021.9 hPa | 0 mm | - | - | - |
| 1777547296 | 3.33° C | 89% | 1022 hPa | 0 mm | - | - | - |
| 1777546712 | 3.33° C | 89% | 1021.7 hPa | 0 mm | - | - | - |
| 1777546099 | 3.33° C | 89% | 1021.7 hPa | 0 mm | - | - | - |
| 1777545504 | 3.89° C | 89% | 1021.8 hPa | 0 mm | - | - | - |
| 1777544913 | 3.89° C | 88% | 1021.7 hPa | 0 mm | - | - | - |
| 1777544298 | 3.89° C | 88% | 1021.7 hPa | 0 mm | - | - | - |
| 1777543705 | 4.44° C | 88% | 1021.4 hPa | 0 mm | - | - | - |
| 1777543096 | 4.44° C | 89% | 1021.5 hPa | 0 mm | - | - | - |
* Rain since midnight (hover to see other rain measurements)
** Current wind speed in m/s (hover to see current wind gust speed)